Temperature
18 18 18 18 18 18 18 18 18 18 18 18 18 18 18 18 18 19 19 19 19 18 18 19 19 19 19 19 19 19 19 18 18 18 18 18 18 18 18 18 18 18 18
18 18 18 18 18 18 18 18 18 18 18 18 18 18 18 18 18 18 18 18 18 18 18 18 18 18 18 19 19 18 18 18 18 18 18 18 18 18 18 18 18 18 18
18 18 18 18 18 18 18 18 18 18 18 18 18 18 18 18 18 18 18 18 18 18 18 18 18 18 18 18 18 18 18 18 18 18 18 17 18 18 18 18 18 18 18
18 18 17 18 18 18 18 18 18 18 18 18 18 18 18 18 18 18 18 18 18 18 18 18 18 18 18 18 18 18 18 18 18 18 18 17 17 18 18 18 18 18 18
18 17 17 18 18 18 18 17 17 17 18 18 18 18 18 18 18 18 18 18 18 18 18 18 18 18 18 18 18 18 18 18 18 18 17 17 18 18 18 18 18 18 18
17 17 17 18 18 17 17 17 17 17 17 17 17 17 17 17 17 17 17 17 18 18 18 18 18 18 18 18 18 18 18 18 18 17 17 17 17 18 18 18 18 18 18
17 17 17 17 17 17 17 17 17 17 17 17 17 17 17 17 17 17 17 17 17 18 18 18 18 18 18 18 18 18 18 18 18 17 17 17 17 18 18 18 18 18 18
17 17 17 17 17 17 17 17 17 17 17 17 17 17 17 17 17 17 17 17 17 17 17 17 17 17 17 18 18 18 18 18 17 17 17 17 18 18 18 18 18 18 18
17 17 17 17 17 17 17 17 16 16 16 16 16 16 16 17 17 17 17 17 17 17 17 17 17 17 17 17 17 18 18 18 17 17 17 17 18 18 18 18 18 18 18
17 17 17 17 16 16 16 16 16 16 16 16 16 16 16 16 16 16 16 16 16 17 17 17 17 17 17 17 17 17 18 18 17 17 17 17 18 18 18 18 18 18 18
17 17 17 16 16 16 16 16 16 16 16 15 15 15 15 15 15 16 16 16 16 16 17 17 17 17 17 17 17 17 17 17 17 17 17 17 18 18 18 18 18 18 18
17 17 17 16 16 16 16 15 15 15 15 15 15 15 15 15 15 15 15 16 16 16 16 16 17 17 17 16 17 17 17 17 17 17 17 18 18 18 18 18 18 18 18
17 17 16 16 16 16 15 15 15 15 15 15 14 14 14 14 15 15 15 15 15 15 15 16 16 16 16 16 17 17 17 17 17 17 17 18 18 18 18 18 18 18 18
17 16 16 16 16 16 15 15 15 15 15 14 14 14 14 14 14 14 14 14 15 15 15 15 15 16 16 16 16 17 17 17 17 17 17 18 18 18 18 18 18 18 18
17 16 16 15 15 15 15 14 15 14 14 14 14 14 14 14 14 14 14 14 14 14 15 15 15 15 16 16 16 16 16 17 17 17 17 18 18 18 18 18 18 18 18
17 16 16 15 15 15 15 15 14 14 14 14 14 14 14 14 14 14 14 14 14 14 14 14 15 15 15 16 16 16 16 16 16 17 17 17 18 18 18 18 18 18 18
17 16 16 15 15 15 14 14 14 14 14 14 13 13 13 13 13 13 13 13 14 14 14 14 14 15 15 15 15 16 16 16 16 17 17 17 17 17 18 18 18 18 18
17 16 15 15 15 14 14 14 14 14 13 13 13 13 13 13 13 13 13 13 13 13 14 14 14 14 15 15 15 15 16 16 16 17 17 17 17 17 17 17 17 17 17
16 16 15 15 14 14 14 14 13 13 13 13 13 13 13 13 13 13 13 13 13 13 13 13 14 14 14 14 15 15 15 16 16 16 17 17 17 17 17 17 17 17 17
16 16 15 15 14 14 14 13 13 13 13 13 13 13 13 13 12 13 13 13 13 13 13 13 13 13 14 14 15 15 15 15 16 16 16 17 17 17 17 17 17 17 17
16 16 15 15 14 14 14 13 13 13 13 13 13 12 12 12 12 12 12 12 12 13 13 13 13 13 14 14 14 15 15 15 15 16 16 16 16 17 17 17 17 17 17
16 15 15 15 14 14 13 13 13 13 13 13 12 12 12 12 12 12 12 12 12 12 12 12 13 13 13 14 14 15 15 15 15 15 16 16 16 16 16 17 17 16 17
16 15 15 14 14 13 13 13 13 13 13 13 13 12 12 12 12 12 12 12 12 12 12 12 13 13 13 13 14 14 15 16 15 15 15 16 16 16 16 16 16 16 16
16 15 15 14 14 13 13 13 13 13 13 13 12 12 12 12 12 12 12 12 12 12 12 12 12 13 13 13 13 14 14 14 15 15 15 15 15 16 16 16 16 16 16
16 15 15 14 14 13 13 13 13 13 13 12 12 12 12 12 12 12 12 12 12 12 12 12 12 12 13 13 13 14 14 14 15 15 15 15 15 15 15 16 16 16 16
16 15 15 14 14 13 13 13 13 13 12 12 12 12 12 12 12 12 12 12 12 12 12 12 12 12 12 13 13 13 14 14 14 14 15 15 15 15 15 15 15 16 16
Wind_Speed
5 6 8 5 5 4 4 4 4 3 2 2 2 2 3 3 3 2 2 1 1 1 1 1 1 1 1 2 2 2 3 2 2 3 2 2 2 2 2 2 1 3 6
6 7 8 5 4 3 3 3 2 1 1 0 1 1 1 2 2 2 2 2 3 3 3 2 1 1 1 1 1 2 2 2 2 2 1 2 3 2 2 1 3 5 4
7 7 7 5 4 3 3 2 2 2 2 2 2 2 2 3 3 4 4 4 4 4 4 3 3 2 1 1 1 2 2 2 1 1 3 2 4 3 2 1 2 3 3
7 7 6 5 4 3 3 3 3 3 3 3 3 3 4 4 5 5 5 5 6 6 6 5 4 4 3 2 2 2 2 2 1 3 4 0 1 5 1 1 2 2 3
7 6 7 5 4 3 3 3 3 4 4 4 4 4 5 5 6 6 7 7 7 8 8 7 7 6 5 4 3 2 2 2 2 6 1 1 1 4 1 1 1 2 3
7 6 7 5 4 4 3 3 3 4 4 5 5 5 6 5 5 6 7 7 7 8 9 9 8 7 6 5 4 3 3 3 6 3 1 2 1 3 1 1 1 2 3
7 6 7 6 5 4 4 4 4 4 5 5 5 6 6 6 6 6 7 8 8 8 9 9 8 8 8 7 6 4 4 4 6 3 2 2 1 2 1 2 2 2 3
6 5 5 6 5 5 5 5 5 5 5 5 5 5 6 6 7 7 8 8 8 9 8 8 8 8 8 8 7 6 5 7 6 4 3 2 2 1 2 2 3 3 3
5 4 3 4 3 3 4 5 6 6 6 5 5 5 5 6 6 7 7 7 8 8 8 8 8 8 8 8 8 7 6 6 7 5 4 2 3 2 3 3 3 3 4
4 3 3 3 3 3 2 4 4 5 5 5 5 5 5 6 5 5 6 5 6 6 7 7 7 7 8 8 8 7 6 7 8 6 5 2 3 4 4 4 4 4 4
2 2 2 2 3 3 4 3 3 2 3 5 4 2 6 6 6 5 5 5 6 7 7 6 6 7 8 8 8 7 7 8 6 6 5 2 2 5 5 5 5 5 6
1 1 2 2 3 3 4 4 4 4 4 5 6 5 6 6 5 6 3 4 5 6 7 6 6 7 8 7 7 8 8 7 7 6 4 3 4 5 6 6 6 6 7
1 1 2 3 3 4 3 4 4 5 4 5 5 6 6 6 5 5 5 4 5 6 6 5 6 6 6 6 5 6 7 6 6 6 5 5 5 6 6 7 7 7 8
0 1 2 3 4 4 5 4 5 5 4 5 5 7 6 4 5 5 4 4 4 4 4 5 4 6 6 6 6 6 7 6 6 6 4 5 6 7 7 7 8 8 9
1 0 2 3 4 4 4 4 5 5 5 5 5 6 6 5 5 5 4 4 5 4 4 4 5 5 6 6 6 6 7 7 7 7 5 7 7 7 7 8 8 9 10
0 1 2 3 4 5 5 5 5 5 5 6 5 6 6 5 5 5 5 4 5 5 4 5 5 5 5 5 5 6 7 7 7 7 6 7 9 8 7 8 9 10 11
0 1 2 3 4 5 5 5 5 5 5 5 5 7 7 6 6 5 5 5 5 5 5 5 5 4 5 5 6 6 6 6 6 7 7 6 7 9 8 8 9 10 11
1 1 2 2 4 5 5 5 4 5 5 5 5 6 6 6 6 6 5 5 5 5 4 4 4 4 4 5 5 4 5 4 7 6 7 7 6 6 8 9 9 9 10
1 0 1 2 4 4 4 4 4 4 4 5 5 5 6 6 6 5 5 5 6 4 4 4 3 4 4 4 4 4 4 4 5 6 7 6 6 6 5 9 10 9 10
2 1 1 2 3 4 3 4 3 4 4 4 4 5 6 6 6 6 5 5 5 4 4 4 4 3 4 4 4 3 4 4 4 5 5 5 5 7 6 7 8 9 10
3 1 0 2 3 3 4 4 4 4 5 4 4 5 6 6 6 5 5 4 4 4 4 5 4 4 3 3 3 2 3 3 3 3 3 4 5 5 6 6 6 6 8
3 2 1 1 2 3 3 4 4 5 5 4 4 5 6 6 6 5 5 4 4 4 4 4 3 3 3 2 2 2 3 3 3 3 3 3 3 4 5 6 6 6 5
4 2 1 1 1 2 3 3 4 3 3 3 5 5 5 6 5 5 5 5 4 4 3 4 4 3 3 3 2 2 2 2 2 3 3 3 3 3 3 4 5 6 6
4 3 2 1 1 2 3 3 5 5 5 5 5 5 5 5 5 4 4 4 4 4 3 3 3 3 3 3 2 2 2 1 1 1 2 2 3 3 3 3 3 4 5
5 3 3 2 1 2 3 3 4 4 4 4 5 5 5 4 4 4 5 4 4 4 3 3 3 3 3 3 2 2 1 1 2 2 1 2 2 2 2 2 2 2 3
5 4 3 2 1 1 3 3 4 4 5 6 6 6 5 4 4 5 5 4 4 3 3 3 3 3 3 3 3 3 2 2 2 2 2 2 2 1 2 2 2 2 2
Wind_Direction
145 140 127 138 134 130 126 125 120 122 119 138 150 158 170 183 190 195 209 235 275 287 298 314 7 21 37 43 36 35 39 39 47 43 49 74 82 82 81 100 224 117 96
134 133 127 135 122 116 110 112 110 102 88 92 201 210 214 223 227 232 237 254 270 275 280 285 307 321 0 23 9 6 14 23 32 32 12 179 140 99 89 76 357 64 93
123 124 128 123 115 109 91 68 45 14 342 329 305 270 263 262 264 262 264 266 270 271 271 272 281 283 295 303 329 335 348 356 2 348 254 226 134 117 96 102 88 93 99
112 115 109 105 95 84 70 54 33 14 355 340 327 303 281 276 274 273 273 275 278 277 270 264 263 268 270 272 290 310 326 338 332 269 242 166 129 106 104 123 123 122 111
108 104 94 86 75 68 59 41 26 11 0 349 336 320 301 288 283 279 275 274 278 282 276 264 260 261 262 261 266 281 299 309 284 266 293 338 59 106 135 141 142 132 124
108 103 92 74 65 52 31 15 12 0 357 352 342 331 320 308 298 293 286 279 273 273 275 272 262 258 258 258 256 263 279 287 262 263 277 262 177 115 168 177 164 148 138
108 99 92 69 57 45 31 21 13 2 353 345 339 339 337 328 316 305 297 290 281 276 277 278 270 261 256 258 257 253 259 270 265 263 249 245 85 85 211 197 192 172 153
106 100 92 87 66 48 35 27 14 3 351 347 343 339 338 333 324 311 300 296 291 286 282 280 275 265 254 252 252 250 250 266 247 249 247 237 93 231 232 211 203 186 172
103 91 81 79 87 81 44 26 12 4 357 348 342 334 330 325 318 308 301 300 297 295 287 279 276 272 260 249 244 242 242 256 266 256 246 224 130 231 232 215 209 198 186
104 88 68 56 22 3 17 55 14 3 351 339 331 329 317 296 290 294 286 297 299 300 300 292 279 275 265 251 241 236 237 244 247 249 246 179 151 239 233 219 212 207 195
103 75 55 26 14 357 345 17 342 337 339 300 285 292 287 290 297 290 312 314 306 302 300 301 288 274 269 247 233 230 234 243 244 252 249 111 220 247 241 228 215 210 198
116 68 21 4 357 348 344 337 327 326 332 318 320 318 306 302 296 298 288 281 285 288 282 278 282 265 257 252 226 219 233 236 244 243 226 157 240 249 246 230 212 206 192
114 47 352 348 348 335 334 332 330 325 325 318 326 321 311 304 297 293 295 279 276 270 278 267 259 254 252 253 250 236 238 240 241 245 219 173 235 246 243 225 209 202 194
145 348 337 334 332 332 333 333 321 324 326 326 326 322 318 313 306 309 299 306 299 288 281 273 267 257 255 250 240 240 238 238 241 244 221 185 235 245 240 222 211 202 196
219 315 327 324 333 334 333 323 319 325 324 326 327 318 320 311 305 305 298 303 298 295 279 275 268 262 257 251 243 237 240 236 240 239 222 191 224 240 237 223 211 205 198
230 352 346 333 337 333 330 328 330 327 319 317 322 320 317 315 308 306 299 300 298 295 293 280 270 268 263 253 245 242 243 239 236 238 245 206 206 225 231 223 210 205 198
190 359 358 343 339 338 336 336 328 321 319 322 324 320 318 315 309 307 305 302 299 297 290 281 277 268 262 255 245 239 239 241 242 233 236 239 212 202 213 217 208 202 199
210 358 23 349 340 344 342 334 328 326 325 320 320 318 316 315 313 310 305 303 305 299 291 280 274 268 259 256 252 243 242 234 242 237 234 231 230 213 195 197 196 197 199
186 1 10 5 348 349 344 331 330 332 328 324 325 326 323 319 315 308 302 302 303 297 291 287 280 280 274 265 257 240 241 236 237 234 230 228 223 221 206 178 187 195 199
179 177 5 9 347 346 335 332 340 341 336 335 336 334 328 320 317 313 301 301 302 294 288 285 285 277 279 270 261 246 231 230 231 235 233 224 220 216 208 190 188 190 190
180 197 5 339 357 348 342 335 334 339 338 340 342 340 331 323 321 316 307 304 299 295 291 287 281 275 272 270 261 244 214 210 215 226 229 223 210 211 203 194 194 188 185
189 202 243 323 354 354 351 334 326 323 325 335 334 339 340 332 326 320 314 307 300 292 284 285 279 279 276 254 260 251 214 189 196 207 213 215 214 202 206 194 191 189 196
196 195 222 297 340 350 341 333 326 325 319 335 343 345 344 336 328 323 316 310 304 295 289 281 274 269 278 264 251 254 238 209 189 183 203 207 214 218 209 201 197 195 197
192 189 211 232 309 333 328 333 338 337 341 344 337 338 333 335 335 330 318 308 303 299 293 281 277 269 268 265 252 255 289 303 227 193 186 196 205 215 207 202 206 206 207
184 189 208 223 266 315 325 332 319 332 338 334 334 337 337 343 343 340 325 314 307 301 299 294 287 272 256 253 255 245 242 244 251 247 214 208 200 210 208 209 214 223 212
181 187 201 216 242 290 303 311 320 332 329 334 340 342 343 346 343 347 335 324 319 311 306 298 277 262 259 248 248 240 236 231 230 247 245 235 218 207 206 196 208 219 230
Height
1527 1528 1528 1530 1531 1532 1532 1533 1533 1534 1534 1534 1534 1534 1534 1534 1534 1534 1534 1534 1534 1534 1533 1533 1532 1532 1531 1531 1530 1530 1529 1529 1528 1528 1527 1527 1526 1526 1526 1525 1525 1525 1524
1527 1528 1529 1530 1531 1532 1533 1533 1534 1534 1534 1534 1534 1534 1534 1534 1534 1534 1534 1534 1534 1534 1533 1533 1532 1532 1531 1531 1530 1530 1530 1529 1529 1528 1527 1527 1527 1527 1526 1526 1526 1526 1525
1528 1529 1530 1530 1531 1532 1533 1533 1534 1534 1534 1534 1534 1534 1534 1533 1533 1533 1533 1533 1533 1533 1533 1532 1532 1532 1531 1531 1530 1530 1530 1529 1529 1528 1528 1529 1528 1527 1527 1527 1526 1526 1526
1528 1530 1531 1531 1532 1532 1532 1533 1533 1533 1533 1533 1533 1533 1532 1532 1532 1532 1532 1532 1532 1532 1532 1532 1531 1531 1531 1530 1530 1530 1530 1529 1529 1529 1530 1530 1529 1528 1527 1527 1527 1527 1527
1529 1530 1531 1531 1532 1532 1532 1532 1532 1532 1532 1532 1532 1531 1531 1531 1531 1531 1531 1531 1531 1531 1531 1531 1530 1530 1530 1530 1529 1529 1529 1529 1529 1529 1530 1529 1529 1528 1528 1528 1527 1527 1527
1530 1531 1531 1531 1531 1532 1531 1531 1531 1531 1530 1530 1530 1530 1529 1529 1529 1529 1529 1529 1529 1529 1529 1529 1529 1529 1529 1529 1529 1529 1529 1529 1529 1530 1529 1529 1529 1528 1528 1528 1528 1528 1528
1531 1531 1531 1531 1531 1531 1530 1530 1530 1529 1529 1529 1528 1528 1528 1527 1527 1527 1527 1527 1527 1527 1527 1527 1528 1528 1528 1528 1528 1528 1528 1528 1529 1529 1529 1529 1529 1528 1528 1528 1528 1529 1529
1532 1532 1531 1531 1531 1530 1530 1529 1529 1528 1528 1527 1526 1526 1525 1525 1525 1525 1525 1524 1525 1525 1525 1525 1525 1526 1526 1526 1526 1526 1527 1527 1528 1529 1529 1529 1528 1528 1528 1528 1529 1529 1529
1532 1532 1532 1532 1531 1530 1529 1529 1528 1527 1526 1525 1525 1524 1523 1523 1522 1522 1522 1522 1522 1522 1522 1523 1523 1523 1524 1524 1525 1525 1525 1526 1527 1528 1529 1529 1528 1528 1528 1528 1528 1529 1529
1532 1532 1532 1531 1531 1530 1530 1528 1527 1526 1525 1524 1523 1522 1521 1520 1520 1519 1519 1519 1519 1519 1520 1520 1520 1521 1522 1522 1523 1523 1524 1524 1526 1527 1528 1528 1527 1527 1528 1528 1528 1529 1529
1533 1532 1532 1531 1530 1529 1529 1527 1526 1525 1523 1522 1522 1520 1519 1519 1519 1518 1517 1516 1516 1516 1517 1517 1518 1518 1519 1520 1521 1521 1522 1523 1525 1526 1526 1526 1526 1527 1527 1528 1528 1528 1529
1533 1532 1532 1531 1530 1529 1528 1527 1525 1524 1523 1522 1521 1519 1518 1517 1516 1515 1514 1514 1513 1513 1514 1514 1515 1516 1517 1518 1519 1519 1520 1522 1523 1524 1525 1524 1525 1526 1526 1527 1527 1528 1529
1532 1532 1531 1530 1529 1528 1527 1526 1525 1523 1521 1520 1519 1518 1516 1516 1515 1514 1513 1512 1512 1511 1512 1512 1512 1513 1514 1515 1516 1517 1518 1520 1521 1522 1523 1523 1524 1525 1525 1526 1527 1527 1528
1531 1531 1530 1529 1528 1527 1526 1525 1523 1522 1521 1519 1518 1516 1515 1514 1513 1512 1511 1510 1510 1509 1509 1509 1510 1511 1512 1513 1513 1514 1516 1517 1518 1520 1521 1521 1522 1523 1524 1525 1526 1527 1528
1531 1530 1529 1528 1527 1526 1525 1523 1522 1520 1519 1518 1515 1515 1513 1512 1511 1510 1509 1508 1508 1507 1507 1507 1508 1508 1509 1510 1511 1512 1513 1514 1516 1517 1519 1519 1520 1521 1522 1523 1524 1526 1527
1530 1529 1528 1527 1526 1525 1523 1522 1521 1519 1517 1516 1514 1513 1512 1511 1509 1508 1508 1506 1506 1505 1505 1505 1505 1505 1506 1507 1508 1509 1510 1512 1513 1514 1516 1517 1518 1520 1521 1522 1523 1525 1526
1529 1528 1527 1526 1524 1523 1522 1520 1519 1517 1516 1515 1513 1512 1510 1509 1508 1506 1505 1505 1504 1503 1503 1502 1503 1503 1503 1504 1505 1506 1508 1509 1510 1512 1513 1515 1517 1517 1519 1521 1522 1523 1525
1528 1527 1526 1525 1523 1522 1521 1519 1518 1516 1515 1513 1512 1510 1509 1507 1506 1505 1504 1503 1502 1501 1501 1500 1500 1501 1501 1502 1502 1504 1505 1506 1508 1509 1511 1513 1514 1516 1517 1519 1520 1522 1523
1526 1526 1525 1524 1522 1521 1519 1518 1516 1515 1513 1512 1510 1509 1507 1506 1504 1503 1502 1501 1500 1499 1499 1499 1499 1499 1499 1499 1500 1501 1502 1503 1505 1507 1509 1511 1512 1514 1515 1516 1518 1520 1522
1525 1525 1524 1523 1521 1520 1519 1518 1516 1514 1513 1511 1509 1507 1506 1504 1503 1501 1500 1499 1498 1498 1497 1497 1497 1497 1497 1497 1498 1499 1500 1501 1503 1504 1507 1508 1510 1512 1513 1515 1517 1518 1520
1523 1523 1523 1522 1521 1519 1518 1517 1515 1514 1512 1510 1508 1506 1504 1503 1501 1500 1499 1498 1496 1496 1495 1495 1495 1495 1495 1496 1497 1497 1498 1499 1501 1502 1504 1506 1508 1509 1511 1513 1515 1517 1518
1522 1522 1522 1521 1520 1518 1517 1516 1514 1512 1511 1509 1507 1505 1503 1502 1500 1499 1498 1496 1495 1494 1494 1493 1493 1494 1494 1495 1495 1496 1497 1499 1499 1500 1502 1503 1505 1507 1509 1511 1513 1514 1516
1521 1520 1520 1520 1519 1517 1516 1515 1513 1512 1510 1509 1507 1504 1502 1500 1498 1497 1496 1495 1494 1493 1492 1492 1492 1492 1493 1493 1494 1495 1495 1496 1497 1499 1500 1501 1503 1504 1507 1509 1511 1513 1514
1519 1519 1519 1518 1518 1517 1515 1514 1513 1512 1510 1508 1506 1504 1501 1499 1497 1495 1494 1493 1492 1492 1491 1491 1491 1491 1491 1492 1492 1493 1494 1495 1496 1497 1498 1499 1500 1502 1504 1506 1508 1510 1512
1517 1517 1517 1517 1517 1516 1515 1513 1512 1511 1509 1507 1505 1503 1501 1499 1497 1495 1493 1492 1491 1491 1490 1489 1489 1489 1490 1490 1491 1492 1493 1493 1494 1495 1496 1498 1499 1500 1501 1503 1505 1507 1509
1515 1515 1515 1516 1515 1514 1514 1513 1512 1510 1508 1507 1505 1503 1501 1499 1497 1494 1493 1492 1490 1490 1489 1488 1488 1488 1488 1489 1490 1491 1491 1492 1493 1494 1495 1496 1497 1498 1499 1500 1502 1504 1506